Location: ???????
(55.3754°N, 39.3545°E)
Time: 17:33:12
(UTC+00:00)

Cosmos 1076 Rocket - Pass Details

Date: 14 April 2026
Orbit: 581 x 603 km, 82.5° (Epoch: 16 May)

Event Time Altitude Azimuth Distance (km) Brightness Sun altitude
Rises 22:48:24 0° 349° (N) 2,871 7.9 -22.5°
Reaches altitude 10° 22:50:39 10° 353° (N) 1,964 6.9 -22.4°
Maximum altitude 22:54:58 61° 75° (ENE) 692 3.9 -22.1°
Enters shadow 22:56:13 42° 134° (SE) 874 4.1 -22.1°
